CW5458 Weather Reports


time (UTC)temp
C
wind
direction
speed
KPH
gust
KPH
rain 1hr
cm
rain 24hr
cm
rain mn
cm
humidity
%
barometer
mb
20260510214008 30 5 0.0 8.0 0.00 0.00 0.00 35 1013.8
20260510213510 30 309 1.6 8.0 0.00 0.00 0.00 33 1013.8
20260510213027 30 19 3.2 8.0 0.00 0.00 0.00 33 1013.9
20260510212510 30 322 4.8 8.0 0.00 0.00 0.00 36 1013.8
20260510212007 30 145 0.0 6.4 0.00 0.00 0.00 35 1013.8
20260510211528 30 360 1.6 9.7 0.00 0.00 0.00 33 1013.9
20260510211008 29 113 1.6 9.7 0.00 0.00 0.00 34 1013.9
20260510210508 29 301 1.6 6.4 0.00 0.00 0.00 35 1013.8
20260510210028 29 65 1.6 6.4 0.00 0.00 0.00 35 1013.8
20260510205509 30 62 1.6 4.8 0.00 0.00 0.00 36 1013.8
20260510205008 30 69 1.6 11.3 0.00 0.00 0.00 36 1013.8
20260510204528 30 103 3.2 11.3 0.00 0.00 0.00 34 1013.8
20260510204002 30 327 1.6 6.4 0.00 0.00 0.00 35 1013.8
20260510203506 30 50 1.6 6.4 0.00 0.00 0.00 37 1013.8
20260510203006 29 43 1.6 6.4 0.00 0.00 0.00 36 1013.8
20260510202504 29 352 1.6 9.7 0.00 0.00 0.00 39 1013.9
20260510202002 29 227 1.6 9.7 0.00 0.00 0.00 35 1013.9
20260510201507 29 59 1.6 6.4 0.00 0.00 0.00 39 1014.1
20260510201003 28 352 1.6 4.8 0.00 0.00 0.00 40 1014.0
20260510200013 28 74 1.6 8.0 0.00 0.00 0.00 38 1014.0
20260510195004 29 165 3.2 12.9 0.00 0.00 0.00 35 1013.9
20260510194519 29 323 3.2 9.7 0.00 0.00 0.00 38 1014.0
20260510194003 29 26 3.2 12.9 0.00 0.00 0.00 39 1014.0
20260510193503 29 13 3.2 12.9 0.00 0.00 0.00 36 1014.0
20260510193005 29 63 3.2 8.0 0.00 0.00 0.00 36 1014.1
20260510192505 29 360 4.8 12.9 0.00 0.00 0.00 39 1014.3
20260510192002 29 340 1.6 14.5 0.00 0.00 0.00 39 1014.3
20260510191508 29 320 8.0 16.1 0.00 0.00 0.00 40 1014.3
20260510191004 29 331 6.4 16.1 0.00 0.00 0.00 40 1014.3
20260510190502 28 97 3.2 12.9 0.00 0.00 0.00 42 1014.3
20260510185003 28 327 1.6 12.9 0.00 0.00 0.00 40 1014.5
20260510184515 28 200 1.6 12.9 0.00 0.00 0.00 39 1014.6
20260510184003 28 82 3.2 8.0 0.00 0.00 0.00 40 1014.7
20260510183505 28 67 1.6 8.0 0.00 0.00 0.00 39 1014.8
20260510182502 28 195 1.6 16.1 0.00 0.00 0.00 44 1014.9
20260510182003 28 306 4.8 9.7 0.00 0.00 0.00 42 1014.9
20260510181505 28 341 1.6 9.7 0.00 0.00 0.00 43 1014.9
20260510181004 27 324 1.6 9.7 0.00 0.00 0.00 45 1014.9
20260510180503 27 182 3.2 9.7 0.00 0.00 0.00 42 1015.0
20260510180009 27 49 3.2 6.4 0.00 0.00 0.00 42 1015.0
20260510175506 27 58 1.6 11.3 0.00 0.00 0.00 44 1015.0
20260510175004 27 103 4.8 11.3 0.00 0.00 0.00 44 1015.0
20260510174515 27 327 3.2 8.0 0.00 0.00 0.00 42 1014.9
20260510174004 27 206 3.2 12.9 0.00 0.00 0.00 44 1014.9
20260510173507 27 338 6.4 12.9 0.00 0.00 0.00 45 1015.0
20260510173016 26 163 1.6 8.0 0.00 0.00 0.00 44 1015.0
20260510172504 27 250 1.6 8.0 0.00 0.00 0.00 45 1015.1
20260510172009 26 25 3.2 6.4 0.00 0.00 0.00 46 1015.1
20260510171505 26 144 3.2 6.4 0.00 0.00 0.00 48 1015.0
20260510171001 26 281 1.6 6.4 0.00 0.00 0.00 50 1015.1
20260510170509 26 227 0.0 6.4 0.00 0.00 0.00 48 1015.1
20260510170006 26 69 1.6 8.0 0.00 0.00 0.00 47 1015.1
20260510165506 26 182 1.6 11.3 0.00 0.00 0.00 43 1015.1
20260510165003 25 123 3.2 11.3 0.00 0.00 0.00 45 1015.1
20260510164516 25 207 1.6 9.7 0.00 0.00 0.00 45 1015.1
20260510164002 25 141 1.6 6.4 0.00 0.00 0.00 43 1015.1
20260510163504 25 159 1.6 4.8 0.00 0.00 0.00 49 1015.2
20260510163016 25 223 0.0 6.4 0.00 0.00 0.00 52 1015.2
20260510162504 25 92 0.0 6.4 0.00 0.00 0.00 54 1015.3
20260510162007 25 294 1.6 6.4 0.00 0.00 0.00 53 1015.3
20260510161515 25 126 0.0 6.4 0.00 0.00 0.00 56 1015.2
20260510161002 25 105 0.0 6.4 0.00 0.00 0.00 54 1015.2
20260510160506 25 161 0.0 6.4 0.00 0.00 0.00 54 1015.3
20260510160005 25 155 1.6 9.7 0.00 0.00 0.00 54 1015.4
20260510155504 25 253 0.0 9.7 0.00 0.00 0.00 59 1015.5
20260510155005 24 74 1.6 6.4 0.00 0.00 0.00 59 1015.5
20260510154506 24 28 1.6 6.4 0.00 0.00 0.00 58 1015.6
20260510153505 23 180 0.0 4.8 0.00 0.00 0.00 63 1015.7
20260510153010 23 52 1.6 4.8 0.00 0.00 0.00 60 1015.7
20260510152503 23 130 0.0 4.8 0.00 0.00 0.00 62 1015.8
20260510152008 23 209 1.6 6.4 0.00 0.00 0.00 64 1015.7
20260510151516 23 263 1.6 8.0 0.00 0.00 0.00 63 1015.7
20260510151003 23 211 1.6 9.7 0.00 0.00 0.00 64 1015.6
20260510150510 23 52 1.6 9.7 0.00 0.00 0.00 63 1015.6
20260510150016 22 188 0.0 4.8 0.00 0.00 0.00 65 1015.5
20260510145507 22 321 1.6 8.0 0.00 0.00 0.00 65 1015.5
20260510144505 22 117 3.2 8.0 0.00 0.00 0.00 64 1015.6
20260510144009 22 200 1.6 8.0 0.00 0.00 0.00 67 1015.5
20260510143513 22 215 1.6 9.7 0.00 0.00 0.00 68 1015.6
20260510143024 22 185 3.2 9.7 0.00 0.00 0.00 67 1015.6
20260510142505 22 121 3.2 6.4 0.00 0.00 0.00 71 1015.5
20260510142004 21 87 1.6 6.4 0.00 0.00 0.00 70 1015.5
20260510141514 21 223 1.6 4.8 0.00 0.00 0.00 72 1015.5
20260510141007 21 218 0.0 9.7 0.00 0.00 0.00 72 1015.7
20260510140506 21 221 1.6 9.7 0.00 0.00 0.00 76 1015.6
20260510140013 21 213 4.8 11.3 0.00 0.00 0.00 75 1015.5
20260510135508 21 126 3.2 11.3 0.00 0.00 0.00 76 1015.6
20260510135008 21 257 0.0 6.4 0.00 0.00 0.00 78 1015.7
20260510134516 20 224 1.6 6.4 0.00 0.00 0.00 77 1015.6
20260510134011 20 236 0.0 6.4 0.00 0.00 0.00 80 1015.6
20260510133507 20 113 4.8 6.4 0.00 0.00 0.00 80 1015.6
20260510133014 20 147 0.0 6.4 0.00 0.00 0.00 81 1015.5
20260510132513 20 214 0.0 6.4 0.00 0.00 0.00 83 1015.4
20260510132007 20 288 0.0 6.4 0.00 0.00 0.00 85 1015.4
20260510131523 19 347 1.6 8.0 0.00 0.00 0.00 84 1015.4
20260510131005 19 191 1.6 8.0 0.00 0.00 0.00 84 1015.4
20260510130504 18 108 0.0 9.7 0.00 0.00 0.00 87 1015.4
20260510130016 18 138 1.6 9.7 0.00 0.00 0.00 87 1015.3
20260510125508 18 176 1.6 6.4 0.00 0.00 0.00 89 1015.2
20260510125008 18 157 0.0 3.2 0.00 0.00 0.00 91 1015.2
20260510124010 17 199 3.2 4.8 0.00 0.00 0.00 92 1015.2
20260510123510 17 360 0.0 4.8 0.00 0.00 0.00 93 1015.1
20260510123015 17 360 0.0 4.8 0.00 0.00 0.00 93 1014.9
20260510122508 17 360 0.0 4.8 0.00 0.00 0.00 94 1014.9
20260510122008 16 360 0.0 3.2 0.00 0.00 0.00 94 1014.9
20260510121517 16 360 0.0 3.2 0.00 0.00 0.00 95 1014.7
20260510121011 16 360 0.0 3.2 0.00 0.00 0.00 95 1014.7
20260510120507 16 360 0.0 3.2 0.00 0.00 0.00 95 1014.8
20260510120016 16 322 0.0 1.6 0.00 0.00 0.00 95 1014.9
20260510115505 15 322 0.0 1.6 0.00 0.00 0.00 95 1014.9
20260510115010 15 360 0.0 1.6 0.00 0.00 0.00 95 1014.7
20260510114522 15 360 0.0 3.2 0.00 0.00 0.00 95 1014.7
20260510114011 15 360 0.0 3.2 0.00 0.00 0.00 95 1014.6
20260510113506 15 360 0.0 1.6 0.00 0.00 0.00 95 1014.5
20260510113014 15 360 0.0 0.0 0.00 0.00 0.00 95 1014.4
20260510112514 15 360 0.0 0.0 0.00 0.00 0.00 95 1014.1
20260510112008 15 360 0.0 1.6 0.00 0.00 0.00 94 1014.0
20260510111509 15 360 0.0 1.6 0.00 0.00 0.00 94 1014.0
20260510111004 15 360 0.0 3.2 0.00 0.00 0.00 94 1013.9
20260510110505 15 360 0.0 3.2 0.00 0.00 0.00 94 1013.9
20260510110014 15 360 0.0 3.2 0.00 0.00 0.00 94 1013.9
20260510105504 14 360 0.0 1.6 0.00 0.00 0.00 94 1013.8
20260510105005 14 360 0.0 1.6 0.00 0.00 0.00 94 1013.6
20260510104518 14 360 0.0 1.6 0.00 0.00 0.00 94 1013.6
20260510104011 14 360 0.0 1.6 0.00 0.00 0.00 94 1013.6
20260510102508 15 360 0.0 0.0 0.00 0.00 0.00 94 1013.4
20260510102010 15 360 0.0 0.0 0.00 0.00 0.00 94 1013.3
20260510101012 15 360 0.0 0.0 0.00 0.00 0.00 94 1013.2
20260510100506 15 360 0.0 1.6 0.00 0.00 0.00 94 1013.1
20260510100026 15 360 0.0 1.6 0.00 0.00 0.00 94 1013.1
20260510095504 15 360 0.0 1.6 0.00 0.00 0.00 94 1013.1
20260510095007 15 360 0.0 1.6 0.00 0.00 0.00 94 1013.1
20260510094008 15 360 0.0 1.6 0.00 0.00 0.00 94 1013.1
20260510093017 15 360 0.0 1.6 0.00 0.00 0.00 94 1012.9
20260510092507 15 360 0.0 1.6 0.00 0.00 0.00 94 1013.0
20260510092012 15 360 0.0 3.2 0.00 0.00 0.00 94 1012.8
20260510091517 15 360 0.0 3.2 0.00 0.00 0.00 94 1012.7
20260510091007 15 360 1.6 3.2 0.00 0.00 0.00 94 1012.7
20260510090507 15 360 1.6 3.2 0.00 0.00 0.00 94 1012.6
20260510090018 15 360 0.0 1.6 0.00 0.00 0.00 94 1012.4
20260510085510 15 360 0.0 0.0 0.00 0.00 0.00 94 1012.4
20260510085005 15 360 0.0 1.6 0.00 0.00 0.00 94 1012.4
20260510084517 15 360 0.0 1.6 0.00 0.00 0.00 94 1012.3
20260510084007 15 360 0.0 1.6 0.00 0.00 0.00 94 1012.3
20260510083505 15 360 0.0 1.6 0.00 0.00 0.00 94 1012.2
20260510083021 15 360 0.0 1.6 0.00 0.00 0.00 94 1012.1
20260510082507 15 360 0.0 1.6 0.00 0.00 0.00 94 1012.3
20260510081518 15 360 0.0 0.0 0.00 0.00 0.00 94 1012.3
20260510080508 15 360 0.0 3.2 0.00 0.00 0.00 94 1012.2
20260510080025 15 360 0.0 3.2 0.00 0.00 0.00 94 1012.3
20260510075507 15 360 0.0 1.6 0.00 0.00 0.00 94 1012.3
20260510075011 15 360 0.0 0.0 0.00 0.00 0.00 94 1012.2
20260510074514 15 360 0.0 0.0 0.00 0.00 0.00 94 1012.1
20260510074003 15 360 0.0 0.0 0.00 0.00 0.00 94 1012.1
20260510073503 15 360 0.0 0.0 0.00 0.00 0.00 93 1012.1
20260510073015 15 360 0.0 0.0 0.00 0.00 0.00 93 1012.1
20260510072509 15 360 0.0 0.0 0.00 0.00 0.00 93 1012.1
20260510072010 15 360 0.0 0.0 0.00 0.00 0.00 93 1012.0
20260510071522 15 360 0.0 0.0 0.00 0.00 0.00 93 1012.1
20260510071007 15 360 0.0 0.0 0.00 0.00 0.00 93 1012.0
20260510070509 15 360 0.0 0.0 0.00 0.00 0.00 93 1012.0
20260510070016 15 360 0.0 0.0 0.00 0.00 0.00 94 1012.0
20260510065507 15 360 0.0 0.0 0.00 0.00 0.00 94 1012.0
20260510065014 15 360 0.0 1.6 0.00 0.00 0.00 94 1012.2
20260510064520 15 360 0.0 3.2 0.00 0.00 0.00 94 1012.2
20260510064010 15 360 0.0 3.2 0.00 0.00 0.00 93 1012.2
20260510063507 15 360 0.0 1.6 0.00 0.00 0.00 93 1012.2
20260510063018 15 360 0.0 1.6 0.00 0.00 0.00 93 1012.1
20260510062508 15 360 0.0 0.0 0.00 0.00 0.00 93 1012.0
20260510062014 15 360 0.0 0.0 0.00 0.00 0.00 93 1011.9
20260510061517 15 360 0.0 0.0 0.00 0.00 0.00 93 1011.8
20260510061008 15 360 0.0 0.0 0.00 0.00 0.00 93 1011.8
20260510060507 15 360 0.0 0.0 0.00 0.00 0.00 93 1011.9
20260510060017 15 360 0.0 0.0 0.00 0.00 0.00 93 1012.0
20260510055506 15 360 0.0 0.0 0.00 0.00 0.00 93 1012.1
20260510055011 15 360 0.0 0.0 0.00 0.00 0.00 93 1012.1
20260510054526 15 360 0.0 0.0 0.00 0.00 0.00 93 1012.2
20260510054014 15 360 0.0 0.0 0.00 0.00 0.00 93 1012.3
20260510053511 15 360 0.0 0.0 0.00 0.00 0.00 93 1012.3
20260510053027 15 360 0.0 0.0 0.00 0.00 0.00 93 1012.3
20260510052513 15 360 0.0 0.0 0.00 0.00 0.00 93 1012.5
20260510052011 15 360 0.0 0.0 0.00 0.00 0.00 93 1012.5
20260510051520 15 360 0.0 0.0 0.00 0.00 0.00 93 1012.5
20260510051009 15 360 0.0 0.0 0.00 0.00 0.00 93 1012.6
20260510050509 15 360 0.0 0.0 0.00 0.00 0.00 93 1012.5
20260510050023 15 360 0.0 0.0 0.00 0.00 0.00 93 1012.5
20260510045511 16 360 0.0 0.0 0.00 0.00 0.00 93 1012.5
20260510045009 16 360 0.0 0.0 0.00 0.00 0.00 93 1012.7
20260510044530 16 360 0.0 0.0 0.00 0.00 0.00 93 1012.7
20260510044012 16 360 0.0 0.0 0.00 0.00 0.00 92 1012.7
20260510043508 16 360 0.0 0.0 0.00 0.00 0.00 93 1012.6
20260510043028 16 360 0.0 1.6 0.00 0.00 0.00 93 1012.5
20260510042508 16 360 0.0 1.6 0.00 0.00 0.00 92 1012.6
20260510042009 16 360 0.0 0.0 0.00 0.00 0.00 93 1012.5
20260510041527 16 360 0.0 0.0 0.00 0.00 0.00 93 1012.5
20260510041011 16 360 0.0 0.0 0.00 0.00 0.00 92 1012.4
20260510040508 16 360 0.0 0.0 0.00 0.00 0.00 92 1012.4
20260510040019 16 360 0.0 1.6 0.00 0.00 0.00 92 1012.5
20260510035507 16 360 0.0 1.6 0.00 0.00 0.00 92 1012.5
20260510035009 16 360 0.0 0.0 0.00 0.00 0.00 92 1012.4
20260510034526 16 360 0.0 0.0 0.00 0.00 0.00 92 1012.4
20260510034009 16 360 0.0 0.0 0.00 0.00 0.00 92 1012.4
20260510033511 16 360 0.0 1.6 0.00 0.00 0.00 92 1012.4
20260510033026 16 360 0.0 1.6 0.00 0.00 0.00 92 1012.4
20260510032510 16 360 0.0 0.0 0.00 0.00 0.00 92 1012.3
20260510032009 16 360 0.0 1.6 0.00 0.00 0.00 92 1012.4
20260510031528 16 360 0.0 1.6 0.00 0.00 0.00 92 1012.3
20260510031013 16 360 0.0 1.6 0.00 0.00 0.00 92 1012.3
20260510030508 16 360 0.0 0.0 0.00 0.00 0.00 91 1012.1
20260510030025 16 360 0.0 0.0 0.00 0.00 0.00 91 1012.2
20260510025513 16 360 0.0 0.0 0.00 0.00 0.00 91 1012.2
20260510025009 16 360 0.0 0.0 0.00 0.00 0.00 91 1012.2
20260510024522 16 360 0.0 0.0 0.00 0.00 0.00 91 1012.3
20260510023503 17 360 0.0 0.0 0.00 0.00 0.00 91 1012.1
20260510023008 17 360 0.0 0.0 0.00 0.00 0.00 91 1012.1
20260510022505 17 360 0.0 1.6 0.00 0.00 0.00 91 1012.1
20260510022003 17 360 0.0 1.6 0.00 0.00 0.00 91 1012.1
20260510021511 17 360 0.0 1.6 0.00 0.00 0.00 90 1012.1
20260510021004 17 360 0.0 0.0 0.00 0.00 0.00 90 1012.1
20260510020509 17 360 0.0 1.6 0.00 0.00 0.00 90 1012.0
20260510020017 17 360 0.0 1.6 0.00 0.00 0.00 90 1011.9
20260510015504 17 360 0.0 1.6 0.00 0.00 0.00 90 1011.8
20260510015006 17 360 0.0 0.0 0.00 0.00 0.00 89 1011.9
20260510014519 17 360 0.0 1.6 0.00 0.00 0.00 89 1011.8
20260510014005 17 360 0.0 1.6 0.00 0.00 0.00 89 1011.8
20260510013509 18 360 0.0 0.0 0.00 0.00 0.00 88 1011.6
20260510013014 18 360 0.0 0.0 0.00 0.00 0.00 88 1011.4
20260510012004 18 360 0.0 0.0 0.00 0.00 0.00 87 1011.3
20260510011518 18 360 0.0 0.0 0.00 0.00 0.00 86 1011.2
20260510011006 18 360 0.0 0.0 0.00 0.00 0.00 86 1011.1
20260510010014 18 360 0.0 0.0 0.00 0.00 0.00 86 1011.1
20260510005503 18 360 0.0 1.6 0.00 0.00 0.00 85 1011.1
20260510005006 19 360 0.0 1.6 0.00 0.00 0.00 84 1011.1
20260510004005 19 360 0.0 0.0 0.00 0.00 0.00 84 1011.0
20260510003506 19 360 0.0 0.0 0.00 0.00 0.00 83 1011.0
20260510003023 20 360 0.0 0.0 0.00 0.00 0.00 83 1010.9
20260510002010 20 360 0.0 0.0 0.00 0.00 0.00 81 1011.0
20260510001516 20 360 0.0 0.0 0.00 0.00 0.00 80 1011.0
20260510001003 20 360 0.0 0.0 0.00 0.00 0.00 80 1011.1
20260510000504 20 360 0.0 0.0 0.00 0.00 0.00 79 1011.1
20260510000015 21 360 0.0 0.0 0.00 0.00 0.00 78 1011.0
20260509235507 21 360 0.0 0.0 0.00 0.00 0.00 77 1010.9
20260509235010 21 360 0.0 0.0 0.00 0.00 0.00 77 1010.9
20260509234519 21 360 0.0 0.0 0.00 0.00 0.00 76 1010.9
20260509234003 21 360 0.0 0.0 0.00 0.00 0.00 76 1010.8
20260509233509 21 360 0.0 1.6 0.00 0.00 0.00 75 1010.8
20260509233019 22 360 0.0 1.6 0.00 0.00 0.00 75 1010.8
20260509232503 22 360 0.0 1.6 0.00 0.00 0.00 75 1010.5
20260509232011 22 360 0.0 1.6 0.00 0.00 0.00 75 1010.3
20260509231520 22 360 0.0 1.6 0.00 0.00 0.00 75 1010.3
20260509230507 22 16 0.0 1.6 0.00 0.00 0.00 74 1010.4
20260509230018 22 16 0.0 1.6 0.00 0.00 0.00 73 1010.2
20260509225504 22 16 0.0 4.8 0.00 0.00 0.00 73 1010.2
20260509224517 22 347 0.0 3.2 0.00 0.00 0.00 74 1010.1
20260509224006 22 40 0.0 3.2 0.00 0.00 0.00 73 1010.1
20260509223506 22 82 0.0 3.2 0.00 0.00 0.00 72 1010.1
20260509222507 22 82 0.0 4.8 0.00 0.00 0.00 73 1010.2
20260509222008 22 333 0.0 3.2 0.00 0.00 0.00 73 1010.2
20260509221518 22 309 0.0 4.8 0.00 0.00 0.00 73 1010.1
20260509221009 22 313 0.0 4.8 0.00 0.00 0.00 73 1010.2
20260509220510 22 200 0.0 4.8 0.00 0.00 0.00 73 1010.2
20260509220015 22 352 0.0 4.8 0.00 0.00 0.00 72 1010.3
20260509215511 22 49 0.0 3.2 0.00 0.00 0.00 72 1010.3
20260509215010 22 309 0.0 4.8 0.00 0.00 0.00 73 1010.3
20260509214520 22 263 0.0 4.8 0.00 0.00 0.00 73 1010.3